Location: Unspecified
(50.7693°N, 0.0000°E)
Time: 15:38:20
(UTC+00:00)

SR - Pass Details

Date: 02 July 2019
Orbit: 580 x 876 km, 66.7° (Epoch: 21 July)

Event Time Altitude Azimuth Distance (km) Brightness Sun altitude
Rises 08:33:19 0° 324° (NW) 2,988 ? 41.0°
Reaches altitude 10° 08:35:39 10° 332° (NNW) 2,117 ? 41.4°
Maximum altitude 08:40:14 42° 43° (NE) 1,017 ? 42.1°
Drops below altitude 10° 08:45:11 10° 115° (ESE) 2,294 ? 42.8°
Sets 08:47:48 0° 122° (ESE) 3,267 ? 43.2°
